Regional Weather Roundup
Issued by NWS

Home | Current Version | Previous Version | Graphics & Text | Print | Product List | Glossary On
Versions: 1 2 3 4 5 6 7 8 9 10 11 12 13 14 15 16 17 18 19 20 21 22 23 24 25 26 27 28 29 30 31 32 33 34 35 36 37 38 39 40 41 42 43 44 45 46 47 48 49 50
000
ASUS44 KMEG 280510
RWRTN
TENNESSEE HOURLY STATE WEATHER ROUNDUP
NATIONAL WEATHER SERVICE MEMPHIS TN
1200 AM CDT SAT MAR 28 2015

TNZ002-004-019-021-049-052-054-088>092-280600-
WEST TENNESSEE

CITY           SKY/WX    TMP DP  RH WIND       PRES   REMARKS
MEMPHIS INTL   MOCLDY    40  24  53 NE8       30.20R WCI  34
NWS MEMPHIS      N/A     37 N/A N/A MISG        N/A
JACKSON        PTCLDY    34  23  64 NE10      30.19R WCI  26
DYERSBURG      MOCLDY    36  14  41 NE5       30.22S WCI  32
UNION CITY     CLEAR     30  23  74 CALM      30.19S
PARIS          CLEAR     28  18  64 CALM      30.18F
LEXINGTON      CLEAR     32  21  64 N8        30.16S WCI  25
SAVANNAH       CLEAR     34  25  69 N3        30.17S
$$

TNZ008-025-027-028-033-062-065-066-280600-
NORTH MIDDLE TENNESSEE

CITY           SKY/WX    TMP DP  RH WIND       PRES   REMARKS
NASHVILLE      PTCLDY    34  20  56 NW7       30.15S WCI  28
CLARKSVILLE    CLOUDY    34  21  59 N7        30.17R WCI  28
SMYRNA         PTCLDY    34  21  59 N9        30.16S WCI  27
COOKEVILLE     CLOUDY    34  23  64 N9        30.09R WCI  26
CROSSVILLE     CLOUDY    32  20  61 NW10G21   30.04R WCI  24
$$

TNZ061-075-076-078-094-096-097-280600-
SOUTH MIDDLE TENNESSEE

CITY           SKY/WX    TMP DP  RH WIND       PRES   REMARKS
FAYETTEVILLE   CLEAR     32  28  86 NW6       30.11S WCI  26
TULLAHOMA      PTCLDY    32  27  80 N5        30.11R WCI  27
WINCHESTER     PTCLDY    34  28  80 N7        30.10S WCI  28
MCMINNVILLE    CLOUDY    34  21  60 N13       30.10S WCI  25
COLUMBIA       PTCLDY    34  32  93 N5        30.13S WCI  30
SHELBYVILLE    CLOUDY    34  28  80 NW6       30.13S WCI  29
$$

TNZ017-018-042-046-047-280600-
NORTHEAST TENNESSEE

CITY           SKY/WX    TMP DP  RH WIND       PRES   REMARKS
TRI CITIES     CLOUDY    35  24  64 NW15      29.96R WCI  25
ELIZABETHTON   CLOUDY    34  23  64 NW9       29.94R WCI  26
$$

TNZ012-013-036-069-073-074-280600-
CENTRAL EAST TENNESSEE

CITY           SKY/WX    TMP DP  RH WIND       PRES   REMARKS
KNOXVILLE      FLURRIES  36  27  69 N9        30.04R WCI  29
OAK RIDGE      MOCLDY    37  22  54 CALM      30.06S
GATLINBURG     CLOUDY    36  25  64 NW9       30.02R WCI  29
MORRISTOWN     CLOUDY    36  25  64 NW12      30.01R WCI  27
$$

TNZ083-085-099-280600-
SOUTHEAST TENNESSEE

CITY           SKY/WX    TMP DP  RH WIND       PRES   REMARKS
CHATTANOOGA    CLOUDY    41  28  60 N8        30.08R
$$

SKY/WX REPORTED AS FAIR MEANS FEW OR NO CLOUDS BELOW
12 THOUSAND FEET.



USA.gov is the U.S. government's official web portal to all federal, state and local government web resources and services.